Flag for Germany Weather past 2 weeks in Straubing, Bavaria, Germany

Now
40 °F

Rain. Overcast.


Feels Like: 36 °F
Forecast: 37 / 65 °F
Wind: 7 mph from North

Location: Straubing


UV Index: 3 (Moderate)

Visibility: 7 mi


Pressure: 29.88 "Hg

Humidity: 91%

Dew point: 38 °F

Location of StraubingLocation

Historic Weather in Straubing

°F

Straubing temperature yesterday

Maximum temperature yesterday: 54 °F (at 6:00 PM)
Minimum temperature yesterday: 26 °F (at 7:00 AM)
Average temperature yesterday: 40 °F

Past Weeks' High & Low Weather Summary

 TemperatureHumidityPressure
High70 °F (Apr 4, 4:00 PM)100% (Apr 7, 6:00 AM)30.43 "Hg (Apr 7, 6:00 AM)
Low26 °F (Apr 17, 7:00 AM)34% (Apr 3, 6:00 PM)29.65 "Hg (Apr 3, 6:00 PM)
Average49 °F74%30.06 "Hg
* Reported Apr 3 4:00 PM — Apr 18 4:00 PM, Straubing, Weather by CustomWeather, © 2014

Note: Actual official high and low records may vary slightly from our data, if they occured in-between our weather recording intervals... More about our weather records

Advertising

Historic Weather Conditions — Data for Previous 24 hours

 ConditionsComfort  
Time TempWeatherWind HumidityBarometerVisibility
4:00 PM
Apr 18
40 °FRain. Overcast.7 mph91%29.88 "Hg7 mi
3:00 PM42 °FRain. Low clouds.6 mph95%29.86 "Hg2 mi
2:00 PM45 °FRain. Overcast.1 mph93%29.84 "Hg3 mi
1:00 PM43 °FRain. Overcast.3 mph91%29.85 "Hg3 mi
12:00 PM42 °FLight rain. Overcast.1 mph84%29.87 "Hg7 mi
11:00 AM42 °FRain. Overcast.1 mph77%29.88 "Hg4 mi
10:00 AM41 °FPartly sunny.1 mph77%29.88 "Hg11 mi
9:00 AM39 °FScattered clouds.1 mph82%29.90 "Hg11 mi
8:00 AM36 °FPartly sunny.1 mph90%29.90 "Hg8 mi
7:00 AM33 °FOvercast.2 mph88%29.91 "Hg9 mi
6:00 AM31 °FPassing clouds.3 mph94%29.93 "Hg7 mi
5:00 AM31 °FPassing clouds.1 mph90%29.96 "Hg8 mi
4:00 AM30 °FClear.2 mph92%29.98 "Hg8 mi
3:00 AM31 °FClear.2 mph90%29.99 "Hg9 mi
2:00 AM31 °FClear.3 mph88%30.01 "Hg8 mi
6:00 PM
Apr 17
54 °FSunny.2 mph36%30.10 "Hg34 mi
5:00 PM53 °FSunny.2 mph34%30.13 "Hg25 mi
Weather by CustomWeather, © 2014

See weather overview